This demonstration page uses our WeatherBlox Daily Observations layout. Learn more.

Left ArrowRight Arrow

34.74481, -87.66753

Hourly Observations for January 16, 2020

Temp ( °F °C ) Dew Point ( °F °C ) Humidity (%) Winds ( mph kmh ) Pressure ( in mb ) Visibility ( mi km ) Precip ( " mm )
12:53 am 00:53 Cloudy 63 17.2 58 14.4 84 84 NE 12 19 30.22 1023 10 16 0.00 0.00
1:00 am 01:00 Cloudy 62 16.7 57 13.9 84 84 NE 10 17 30.22 1024 10 16 0.00 0.00
1:23 am 01:23 Cloudy 62 16.7 56 13.3 80 80 NE 9 15 30.23 1024 10 16 0.00 0.00
1:53 am 01:53 Cloudy 61 16.1 54 12.2 78 78 NNE 13 20 30.25 1025 10 16 0.00 0.00
2:23 am 02:23 Cloudy 60 15.6 53 11.7 78 78 NNE 9 15 30.28 1025 10 16 0.00 0.00
2:34 am 02:34 Mostly Cloudy 60 15.6 53 11.7 78 78 NNE 10 17 30.28 1025 10 16 0.00 0.00
2:51 am 02:51 Mostly Cloudy 61 16 54 12 77 77 N 7 11 30.29 1026 10 16 0.00 0.00
2:53 am 02:53 Mostly Cloudy 59 15 53 11.7 81 81 N 7 11 30.28 1025 10 16 0.00 0.00
3:16 am 03:16 Partly Cloudy 59 15 52 11.1 78 78 NNE 8 13 30.29 1026 10 16 0.00 0.00
3:53 am 03:53 Clear 58 14.4 48 8.9 70 70 NNE 12 19 30.30 1026 10 16 0.00 0.00
4:53 am 04:53 Clear 57 13.9 47 8.3 69 69 NNE 9 15 30.33 1027 10 16 0.00 0.00
5:53 am 05:53 Mostly Clear 55 12.8 47 8.3 74 74 N 7 11 30.39 1029 10 16 0.00 0.00
6:10 am 06:10 Mostly Cloudy 55 12.8 47 8.3 74 74 NNE 10 17 30.40 1030 10 16 0.00 0.00
6:53 am 06:53 Mostly Cloudy 54 12.2 47 8.3 77 77 NNE 8 13 30.41 1030 10 16 0.00 0.00
7:48 am 07:48 Partly Cloudy 54 12 45 7 72 72 NNE 10 17 30.46 1032 10 16 0.00 0.00
7:53 am 07:53 Partly Cloudy 53 11.7 45 7.2 74 74 N 12 19 30.46 1032 10 16 0.00 0.00
8:53 am 08:53 Mostly Sunny 53 11.7 44 6.7 72 72 NNE 15 24 30.48 1032 10 16 0.00 0.00
9:53 am 09:53 Sunny 53 11.7 42 5.6 66 66 N 13 20 30.49 1033 10 16 0.00 0.00
10:53 am 10:53 Sunny 55 12.8 41 5 59 59 NNE 13 20 30.50 1033 10 16 0.00 0.00
11:53 am 11:53 Sunny 56 13.3 38 3.3 51 51 NE 13 20 30.49 1032 10 16 0.00 0.00
12:53 pm 12:53 Sunny 57 13.9 33 0.6 41 41 NE 12 19 30.48 1032 10 16 0.00 0.00
1:53 pm 13:53 Sunny 57 13.9 33 0.6 41 41 N 9 15 30.48 1032 10 16 0.00 0.00
2:53 pm 14:53 Sunny 55 12.8 28 -2.2 35 35 NE 13 20 30.49 1032 10 16 0.00 0.00
3:53 pm 15:53 Sunny 54 12.2 28 -2.2 37 37 NE 12 19 30.52 1034 10 16 0.00 0.00
4:53 pm 16:53 Sunny 52 11.1 32 0 47 47 NNE 10 17 30.55 1034 10 16 0.00 0.00
5:53 pm 17:53 Clear 50 10 31 -0.6 48 48 NNE 9 15 30.55 1035 10 16 0.00 0.00
6:53 pm 18:53 Clear 50 10 32 0 50 50 NNE 7 11 30.57 1035 10 16 0.00 0.00
7:53 pm 19:53 Clear 49 9.4 29 -1.7 46 46 NE 13 20 30.55 1035 10 16 0.00 0.00
8:53 pm 20:53 Clear 47 8.3 28 -2.2 48 48 NE 15 24 30.55 1035 10 16 0.00 0.00
9:53 pm 21:53 Clear 46 7.8 28 -2.2 50 50 NE 12 19 30.56 1035 10 16 0.00 0.00
10:53 pm 22:53 Clear 45 7.2 29 -1.7 54 54 ENE 10 17 30.56 1035 10 16 0.00 0.00
11:53 pm 23:53 Clear 44 6.7 29 -1.7 55 55 ENE 12 19 30.55 1035 10 16 0.00 0.00

Powered by AerisWeather